Location: Arbon
(43.0005°N, 0.7472°E)
Time: 01:34:23
(UTC+00:00)

S-56A Canister/Altair - Pass Details

Date: 09 December 2020
Orbit: 633 x 2499 km, 38.9° (Epoch: 19 January)

Event Time Altitude Azimuth Distance (km) Brightness Sun altitude
Rises 22:03:04 0° 283° (WNW) 5,400 12.3 -60.2°
Reaches altitude 10° 22:07:37 10° 274° (W) 4,080 11.4 -60.9°
Enters shadow 22:09:02 14° 269° (W) 3,686 11.2 -61.1°
